TimeCST,TemperatureF,Dew PointF,Humidity,Sea Level PressureIn,VisibilityMPH,Wind Direction,Wind SpeedMPH,Gust SpeedMPH,PrecipitationIn,Events,Conditions,WindDirDegrees,DateUTC
12:22 AM,19.4,12.2,74,30.36,10.0,NNE,6.9,-,N/A,,Scattered Clouds,20,2013-03-02 06:22:00
12:52 AM,10.9,8.1,88,30.42,10.0,Calm,Calm,-,N/A,,Partly Cloudy,0,2013-03-02 06:52:00
1:52 AM,7.0,3.9,87,30.42,8.0,West,3.5,-,N/A,,Clear,280,2013-03-02 07:52:00
2:52 AM,9.0,6.1,88,30.42,8.0,Calm,Calm,-,N/A,,Clear,0,2013-03-02 08:52:00
3:52 AM,7.0,5.0,92,30.40,6.0,Calm,Calm,-,N/A,,Clear,0,2013-03-02 09:52:00
4:52 AM,5.0,3.0,92,30.41,10.0,West,3.5,-,N/A,,Clear,280,2013-03-02 10:52:00
5:52 AM,8.1,5.0,87,30.40,9.0,WNW,3.5,-,N/A,,Clear,300,2013-03-02 11:52:00
6:21 AM,5.0,3.2,92,30.34,10.0,WNW,3.5,-,N/A,,Scattered Clouds,300,2013-03-02 12:21:00
6:42 AM,6.8,3.2,85,30.34,10.0,NW,3.5,-,N/A,,Mostly Cloudy,310,2013-03-02 12:42:00
6:52 AM,7.0,5.0,92,30.41,2.0,NNW,4.6,-,N/A,,Mostly Cloudy,330,2013-03-02 12:52:00
7:27 AM,3.2,1.4,92,30.35,10.0,NW,3.5,-,N/A,,Scattered Clouds,320,2013-03-02 13:27:00
7:52 AM,6.1,3.9,91,30.40,10.0,Calm,Calm,-,N/A,,Partly Cloudy,0,2013-03-02 13:52:00
8:05 AM,6.8,6.8,100,30.34,3.0,Calm,Calm,-,N/A,,Scattered Clouds,0,2013-03-02 14:05:00
8:52 AM,14.0,12.0,92,30.40,3.0,Calm,Calm,-,N/A,,Clear,0,2013-03-02 14:52:00
8:53 AM,14.0,12.2,93,30.34,6.0,Calm,Calm,-,N/A,,Clear,0,2013-03-02 14:53:00
9:52 AM,19.0,15.1,85,30.37,10.0,SSE,5.8,-,N/A,,Clear,150,2013-03-02 15:52:00
10:52 AM,19.9,17.1,89,30.37,10.0,SE,4.6,-,N/A,,Scattered Clouds,130,2013-03-02 16:52:00
11:52 AM,23.0,18.0,81,30.34,10.0,SSE,4.6,-,N/A,,Overcast,160,2013-03-02 17:52:00
12:52 PM,26.1,19.0,75,30.32,10.0,ESE,4.6,-,N/A,,Mostly Cloudy,110,2013-03-02 18:52:00
1:52 PM,28.0,19.9,72,30.29,10.0,South,3.5,-,N/A,,Overcast,180,2013-03-02 19:52:00
2:52 PM,28.9,19.0,67,30.26,10.0,SE,8.1,-,N/A,,Overcast,130,2013-03-02 20:52:00
3:52 PM,30.0,19.9,66,30.24,10.0,SE,10.4,-,N/A,,Overcast,140,2013-03-02 21:52:00
4:52 PM,30.0,21.0,69,30.23,10.0,SSE,11.5,-,N/A,,Overcast,150,2013-03-02 22:52:00
5:52 PM,30.0,21.9,72,30.21,10.0,SSE,10.4,-,N/A,,Overcast,160,2013-03-02 23:52:00
6:52 PM,30.0,19.9,66,30.20,10.0,SE,8.1,-,N/A,,Mostly Cloudy,140,2013-03-03 00:52:00
7:52 PM,28.9,21.0,72,30.19,10.0,SE,6.9,-,N/A,,Clear,140,2013-03-03 01:52:00
8:52 PM,26.1,21.0,81,30.17,10.0,ESE,8.1,-,N/A,,Clear,120,2013-03-03 02:52:00
9:52 PM,26.1,21.0,81,30.16,10.0,SE,9.2,-,N/A,,Clear,130,2013-03-03 03:52:00
10:52 PM,25.0,19.9,81,30.15,8.0,SE,8.1,-,N/A,,Clear,130,2013-03-03 04:52:00
11:52 PM,24.1,19.9,84,30.12,6.0,SE,9.2,-,N/A,,Clear,130,2013-03-03 05:52:00